Regional Weather Roundup
Issued by NWS

Home | Current Version | Previous Version | Graphics & Text | Print | Product List | Glossary On
Versions: 1 2 3 4 5 6 7 8 9 10 11 12 13 14 15 16 17 18 19 20 21 22 23 24 25 26 27 28 29 30 31 32 33 34 35 36 37 38 39 40 41 42 43 44 45 46 47 48 49 50
000
ASUS43 KLMK 241502
RWRKY
KENTUCKY REGIONAL WEATHER ROUNDUP
NATIONAL WEATHER SERVICE LOUISVILLE KY
1100 AM EDT SAT SEP 24 2016

NOTE "FAIR" INDICATES FEW OR NO CLOUDS BELOW 12,000 FEET
WITH NO SIGNIFICANT WEATHER AND/OR OBSTRUCTIONS TO VISIBILITY.

KYZ001>023-026-027-061>063-070>075-241600-
WESTERN AND SOUTH CENTRAL KENTUCKY

CITY           SKY/WX    TMP DP  RH WIND       PRES   REMARKS
PADUCAH        SUNNY     82  69  64 CALM      30.11S
HENDERSON      SUNNY     81  66  61 CALM      30.12S
OWENSBORO      SUNNY    N/A N/A N/A VRB5      30.13S
HOPKINSVILLE   SUNNY     82  67  61 CALM      30.13S
BOWLING GREEN  SUNNY     80  67  64 CALM      30.15S
GLASGOW        SUNNY     79  65  62 CALM      30.15S
$$

KYZ024-025-028>034-038-045-046-053-241600-
NORTH CENTRAL KENTUCKY

CITY           SKY/WX    TMP DP  RH WIND       PRES   REMARKS
LOUISVILLE/SDF MOSUNNY   82  66  58 CALM      30.14R
LOUISVILLE/LOU SUNNY     81  67  62 CALM      30.15R
FORT KNOX      SUNNY     81  67  63 VRB2      30.14R
$$

KYZ035>037-039>044-047>052-055>060-089>105-241600-
NORTHEAST KENTUCKY

CITY           SKY/WX    TMP DP  RH WIND       PRES   REMARKS
LEXINGTON      SUNNY     85  65  51 CALM      30.16R
COVINGTON      SUNNY     77  68  73 NE5       30.16S
FRANKFORT      SUNNY     80  66  62 CALM      30.14R
$$

KYZ054-064>069-076>088-106>120-241600-
SOUTHEAST KENTUCKY

CITY           SKY/WX    TMP DP  RH WIND       PRES   REMARKS
JACKSON        SUNNY     77  67  71 CALM      30.17S
LONDON         SUNNY     78  64  61 CALM      30.17R
SOMERSET       SUNNY     75  64  69 CALM      30.17S
MIDDLESBORO    SUNNY     69  66  89 CALM      30.18F
MONTICELLO     SUNNY     81  67  62 VRB5      30.18S
$$





USA.gov is the U.S. government's official web portal to all federal, state and local government web resources and services.